Find Starlink 5800

NORAD ID: 56041 Int'l Des: 2023-042 Owner: SPXS Country: US Constellation: starlink operational
LEOCIRCULAR

实时位置

正在加载3D地球...

关于 Starlink 5800

正在加载描述...

即将过境

Passes for default location (London). Set your location on the main map for personalized predictions.

高度历史

Loading altitude history...

两行轨道根数

1 56041U 23042BH 26104.30600144 -.00002330 00000-0 -79266-4 0 9992
2 56041 43.0037 192.6211 0001349 263.6133 96.4564 15.25910722168618
Epoch: Apr 14, 2026 • Age: 17 hours

当前状态

高度 487.5 km
速度 7.62 km/s
星下点 4.06°N, 20.05°W
发射日期 Mar 24, 2023
运行时间 3 years
类型 internet

技术详情

分类 Payload
质量 305.00 kg
干质量 290.00 kg
总质量 305.00 kg
长度 0.20 m
直径 2.80 m
跨度 9.00 m
形状 Box + pan
制造商 SPXS
平台类型 Starlink
阶段状态 In Orbit
所有者/国家 SPXS/US

Most Searched